STARLINK-34595

Last updated on Sat Aug 02 2025 00:02:05 GMT+0000 (Coordinated Universal Time)

1 64749U 25144AB 25213.05836473 .00078901 00000+0 14117-2 0 9995 2 64749 53.1593 127.1681 0001339 50.1648 309.9479 15.49323042 5913
UTC large
Height (km)
Speed (km/s)
/
Latitude / Longitude
Inclination (degrees)
Orbital Period (minutes)
Azimuth
Elevation
Range (km)
Doppler Factor

Next 0 passes for location: London (51.5072 / 0.1276)

Sorry there are no passes over London.